[[{"header":{"parameterUnit":"m.s-1","parameterCategory":1,"la1":30.2991,"la2":30.254,"lo1":-89.0895,"lo2":-89.0444,"dy":0.0017,"dx":0.0017,"nx":28,"ny":28,"refTime":"2025-11-06T03:00:00:Z","depth":0,"parameterNumber":2,"parameterNumberName":"U-component_of_WINDS"},"data":[0,0,0,0,0,0,0,0,0,0,0,0,0,0,0,0,0,0,0,0,0,0,0,0,0,0,0,0,0,0,0,0,0,0,0,0,0,0,0,0,0,0,0,0,0,0,0,0,0,0,0,0,0,0,0,0,0,0,-0.4751,-0.4751,0,-0.4775,-0.4776,-0.4776,-0.475,-0.4749,-0.4748,-0.4747,-0.4774,-0.4776,-0.4778,0,0,0,0,0,0,0,0,0,0,0,0,0,-0.4683,-0.4685,-0.4751,-0.4751,-0.4751,-0.4775,-0.4776,-0.4776,-0.4751,-0.4749,-0.4748,-0.4747,-0.4774,-0.4776,-0.4778,0,0,0,0,0,0,0,0,0,0,0,0,0,-0.4711,-0.4685,-0.4751,-0.4742,-0.4741,-0.4775,-0.4776,-0.4776,-0.4751,-0.4749,-0.4748,-0.4746,-0.4773,-0.4776,-0.4778,-0.4823,0,0,-0.4786,-0.4787,0,0,0,0,0,0,0,0,-0.4709,-0.4713,-0.4743,-0.4742,-0.4742,-0.4758,-0.4762,-0.4792,-0.4751,-0.4747,-0.4747,-0.4746,-0.477,-0.4773,-0.4781,-0.4825,-0.4826,-0.4786,-0.4787,-0.4788,-0.4789,0,0,0,0,0,0,0,-0.4707,-0.4712,-0.4761,-0.4743,-0.4743,-0.4737,-0.4739,-0.4767,-0.4767,-0.4747,-0.4746,-0.4749,-0.477,-0.4779,-0.4781,-0.4826,-0.4786,-0.4788,-0.4789,-0.479,-0.4909,-0.4911,0,0,0,0,0,0,-0.4706,-0.4711,-0.476,-0.4761,-0.4721,-0.4739,-0.4742,-0.4755,-0.4767,-0.4767,-0.475,-0.4747,-0.4775,-0.4779,-0.4782,-0.4837,-0.4788,-0.4791,-0.4792,-0.4907,-0.4909,-0.4911,0,0,0,0,0,0,-0.4705,-0.4711,-0.4759,-0.4736,-0.4741,-0.4742,-0.4757,-0.4756,-0.4765,-0.4768,-0.4768,-0.4759,-0.4774,-0.4779,-0.4813,-0.4838,-0.4792,-0.4794,-0.4905,-0.4908,-0.491,-0.4947,0,0,0,0,0,0,-0.4703,-0.4711,-0.4728,-0.4736,-0.4743,-0.4789,-0.4758,-0.4757,-0.4769,-0.4766,-0.4777,-0.4777,-0.4773,-0.481,-0.4816,-0.484,-0.4796,-0.4903,-0.4907,-0.4909,-0.4944,-0.4951,-0.4956,0,0,0,0,0,-0.4701,-0.4737,-0.4729,-0.4735,-0.4764,-0.4791,-0.4795,-0.4789,-0.4771,-0.4788,-0.4791,-0.4777,-0.4833,-0.4814,-0.482,-0.4846,-0.4902,-0.4906,-0.4909,-0.4941,-0.4949,-0.4956,0,0,0,0,0,0,-0.4732,-0.4738,-0.4729,-0.4769,-0.4779,-0.4786,-0.4808,-0.4797,-0.4814,-0.481,-0.4803,-0.4805,-0.4842,-0.4847,-0.4825,-0.4891,-0.4865,-0.487,-0.4887,-0.4895,-0.4901,-0.49,-0.4798,0,0,0,0,0,-0.4743,-0.4765,-0.4769,-0.4804,-0.4809,-0.4808,-0.4819,-0.4814,-0.4825,-0.4829,-0.4834,-0.4846,-0.4867,-0.488,-0.4899,-0.4943,-0.4946,-0.4964,-0.497,-0.4976,-0.4981,-0.5006,-0.5015,-0.4923,-0.4923,-0.4923,0,0,-0.4768,-0.4773,-0.4787,-0.481,-0.4818,-0.4841,-0.4812,-0.4837,-0.4854,-0.4833,-0.4867,-0.4871,-0.4883,-0.4923,-0.4941,-0.4928,-0.5006,-0.498,-0.4984,-0.4987,-0.5011,-0.502,-0.5027,-0.4926,-0.4926,-0.4925,0,0,-0.4824,-0.483,-0.486,-0.4868,-0.488,-0.4878,-0.4886,-0.4894,-0.4896,-0.4929,-0.4914,-0.4934,-0.4969,-0.4979,-0.4989,-0.5048,-0.5037,-0.5054,-0.5088,-0.5113,-0.512,-0.5126,-0.5149,-0.5158,-0.5059,-0.5059,-0.5059,0,-0.4853,-0.4886,-0.4877,-0.4904,-0.4915,-0.4896,-0.4927,-0.4935,-0.4953,-0.4961,-0.4946,-0.499,-0.4997,-0.504,-0.5054,-0.5061,-0.5071,-0.5054,-0.5119,-0.5126,-0.5132,-0.5154,-0.5162,-0.5061,-0.5061,-0.5061,-0.5061,0,-0.4922,-0.4946,-0.4969,-0.4986,-0.4999,-0.5028,-0.5024,-0.5038,-0.5031,-0.5031,-0.5065,-0.5073,-0.5093,-0.5102,-0.5096,-0.5144,-0.5136,-0.512,-0.5095,-0.5143,-0.5163,-0.5171,-0.5064,-0.5064,-0.5063,-0.5062,0,0,-0.5002,-0.5012,-0.5021,-0.5029,-0.504,-0.5058,-0.5086,-0.5105,-0.5119,-0.5131,-0.5155,-0.5185,-0.517,-0.5181,-0.5175,-0.5196,-0.5245,-0.5178,-0.5178,-0.5192,-0.5301,-0.5315,-0.5325,-0.5236,-0.5238,-0.5239,-0.5301,0,-0.506,-0.5108,-0.51,-0.5148,-0.517,-0.5151,-0.5176,-0.5185,-0.5186,-0.5205,-0.5206,-0.5228,-0.5206,-0.5212,-0.5232,-0.5235,-0.5267,-0.523,-0.526,-0.5262,-0.5261,-0.5335,-0.535,-0.5408,-0.5309,-0.531,-0.5311,0,-0.5135,-0.515,-0.5199,-0.5207,-0.5216,-0.5238,-0.5256,-0.5274,-0.5284,-0.5283,-0.5295,-0.5285,-0.5314,-0.5285,-0.5325,-0.53,-0.5312,-0.5315,-0.5317,-0.5322,-0.5291,-0.5345,-0.5427,-0.5437,-0.5323,-0.5322,-0.5321,0,-0.5191,-0.5223,-0.5257,-0.5263,-0.5273,-0.5289,-0.5294,-0.5303,-0.5315,-0.533,-0.5339,-0.5357,-0.5368,-0.5382,-0.5378,-0.5357,-0.5419,-0.539,-0.5421,-0.5421,-0.5437,-0.5437,-0.5525,-0.544,-0.544,-0.544,-0.544,0,-0.5258,-0.529,-0.5282,-0.5303,-0.5338,-0.5328,-0.5363,-0.5366,-0.5374,-0.5396,-0.538,-0.5401,-0.5392,-0.5413,-0.5409,-0.5444,-0.5448,-0.5449,-0.5448,-0.5452,-0.5453,-0.5462,-0.5459,-0.5442,-0.5442,-0.5441,-0.5441,0,-0.5328,-0.5323,-0.536,-0.5365,-0.5367,-0.5393,-0.5398,-0.5418,-0.5417,-0.5445,-0.5451,-0.5449,-0.5473,-0.5469,-0.5494,-0.5492,-0.5536,-0.5529,-0.5533,-0.5532,-0.5564,-0.5563,-0.5664,-0.5678,-0.5581,-0.5582,-0.5583,0,-0.5373,-0.5397,-0.5405,-0.5418,-0.5424,-0.5445,-0.5458,-0.5449,-0.5462,-0.5476,-0.5495,-0.5517,-0.5534,-0.5572,-0.5574,-0.5594,-0.5589,-0.5623,-0.5592,-0.5595,-0.5592,-0.5592,-0.5596,-0.563,-0.5631,-0.5632,-0.5633,0,-0.5454,-0.5451,-0.5469,-0.5487,-0.5502,-0.5515,-0.5527,-0.5539,-0.5531,-0.5547,-0.5571,-0.5584,-0.561,-0.5633,-0.5651,-0.5656,-0.5644,-0.5642,-0.565,-0.5656,-0.5659,-0.5661,-0.5553,-0.564,-0.564,-0.5639,-0.5639,-0.5638,-0.5515,-0.5536,-0.5545,-0.5566,-0.5573,-0.5585,-0.5605,-0.5605,-0.5624,-0.5645,-0.5638,-0.5665,-0.5675,-0.5699,-0.5706,-0.5727,-0.5715,-0.5727,-0.5731,-0.5735,-0.574,-0.5653,-0.573,-0.573,-0.573,-0.573,-0.573,0,-0.5598,-0.5602,-0.5621,-0.5639,-0.5655,-0.564,-0.5652,-0.5668,-0.5692,-0.5702,-0.5719,-0.5746,-0.5768,-0.577,-0.5791,-0.5808,-0.5803,-0.5814,-0.5814,-0.5816,-0.5748,-0.574,-0.5818,-0.5818,-0.5818,-0.5818,-0.5818,-0.5818,-0.5643,-0.5678,-0.5675,-0.5714,-0.5718,-0.5744,-0.5753,-0.5764,-0.5772,-0.5803,-0.5821,-0.5822,-0.5829,-0.585,-0.5869,-0.5869,-0.5879,-0.5893,-0.5892,-0.5829,-0.582,-0.5812,-0.5805,-0.5894,-0.5895,-0.5958,-0.5958,-0.5959]},{"header":{"parameterUnit":"m.s-1","parameterCategory":1,"la1":30.2991,"la2":30.254,"lo1":-89.0895,"lo2":-89.0444,"dy":0.0017,"dx":0.0017,"nx":28,"ny":28,"refTime":"2025-11-06T03:00:00:Z","depth":0,"parameterNumber":3,"parameterNumberName":"V-component_of_WINDS"},"data":[0,0,0,0,0,0,0,0,0,0,0,0,0,0,0,0,0,0,0,0,0,0,0,0,0,0,0,0,0,0,0,0,0,0,0,0,0,0,0,0,0,0,0,0,0,0,0,0,0,0,0,0,0,0,0,0,0,0,-2.1807,-2.1808,0,-2.1888,-2.1889,-2.189,-2.1868,-2.1866,-2.1865,-2.1863,-2.1944,-2.1947,-2.1951,0,0,0,0,0,0,0,0,0,0,0,0,0,-2.163,-2.1633,-2.1807,-2.1808,-2.1809,-2.1888,-2.1889,-2.189,-2.1868,-2.1866,-2.1864,-2.1862,-2.1943,-2.1947,-2.1951,0,0,0,0,0,0,0,0,0,0,0,0,0,-2.1709,-2.1634,-2.1806,-2.1807,-2.1808,-2.1888,-2.1889,-2.1891,-2.1869,-2.1866,-2.1864,-2.1862,-2.1941,-2.1946,-2.1952,-2.2035,0,0,-2.1969,-2.1971,0,0,0,0,0,0,0,0,-2.1704,-2.1715,-2.1806,-2.1807,-2.1809,-2.1866,-2.1856,-2.1939,-2.1869,-2.1846,-2.1863,-2.186,-2.1919,-2.1927,-2.1947,-2.2038,-2.2042,-2.1969,-2.1972,-2.1975,-2.1976,0,0,0,0,0,0,0,-2.1699,-2.1711,-2.1839,-2.1807,-2.1809,-2.1803,-2.1812,-2.1872,-2.1895,-2.1847,-2.1846,-2.1856,-2.192,-2.1942,-2.1949,-2.2043,-2.1969,-2.1974,-2.1977,-2.1979,-2.2209,-2.2211,0,0,0,0,0,0,-2.1693,-2.1707,-2.1836,-2.1841,-2.1749,-2.1808,-2.1818,-2.185,-2.1894,-2.1899,-2.1858,-2.1855,-2.1934,-2.1942,-2.1952,-2.2054,-2.1975,-2.198,-2.1983,-2.2206,-2.2209,-2.2212,0,0,0,0,0,0,-2.1689,-2.1704,-2.1833,-2.1774,-2.179,-2.1814,-2.185,-2.1853,-2.1875,-2.1903,-2.1906,-2.1877,-2.1932,-2.1944,-2.2015,-2.2056,-2.1982,-2.1987,-2.2202,-2.2207,-2.2211,-2.2257,0,0,0,0,0,0,-2.1684,-2.1703,-2.1735,-2.1775,-2.1793,-2.1896,-2.1852,-2.1856,-2.1885,-2.1881,-2.1921,-2.1925,-2.1931,-2.2007,-2.202,-2.2062,-2.1992,-2.2199,-2.2204,-2.2209,-2.2252,-2.2262,-2.2271,0,0,0,0,0,-2.1678,-2.1744,-2.1737,-2.1753,-2.1834,-2.1898,-2.1908,-2.1914,-2.1888,-2.1921,-2.1939,-2.1924,-2.2049,-2.2014,-2.2029,-2.2073,-2.2196,-2.2203,-2.2209,-2.2247,-2.226,-2.2271,0,0,0,0,0,0,-2.1707,-2.1749,-2.1742,-2.1823,-2.1857,-2.1894,-2.1935,-2.1927,-2.1969,-2.1964,-2.1968,-2.1978,-2.2051,-2.2069,-2.2029,-2.2157,-2.2119,-2.2128,-2.2143,-2.2155,-2.2164,-2.2159,-2.1996,0,0,0,0,0,-2.1723,-2.1772,-2.1806,-2.1874,-2.1892,-2.1911,-2.1939,-2.1941,-2.1976,-2.199,-2.2013,-2.2048,-2.2095,-2.2125,-2.217,-2.2254,-2.2263,-2.2291,-2.2301,-2.2309,-2.2317,-2.2365,-2.2379,-2.2233,-2.2233,-2.2233,0,0,-2.1756,-2.1785,-2.1816,-2.1881,-2.1908,-2.1959,-2.1923,-2.1978,-2.2016,-2.1998,-2.2068,-2.2086,-2.2124,-2.2203,-2.2238,-2.222,-2.236,-2.2317,-2.2323,-2.2327,-2.2373,-2.2387,-2.2399,-2.2237,-2.2236,-2.2236,0,0,-2.1844,-2.187,-2.1931,-2.1959,-2.2001,-2.2013,-2.2028,-2.2067,-2.2079,-2.2148,-2.2137,-2.2182,-2.2262,-2.2291,-2.2316,-2.2416,-2.2405,-2.243,-2.248,-2.2527,-2.2538,-2.2548,-2.2586,-2.2599,-2.2438,-2.2438,-2.2438,0,-2.188,-2.1957,-2.1963,-2.202,-2.2049,-2.2037,-2.2099,-2.2125,-2.2179,-2.22,-2.2178,-2.2281,-2.2306,-2.2392,-2.2416,-2.2436,-2.2454,-2.2426,-2.2536,-2.2546,-2.2556,-2.2592,-2.2606,-2.2441,-2.2441,-2.2441,-2.244,0,-2.2,-2.2054,-2.2098,-2.2152,-2.2186,-2.2245,-2.226,-2.2293,-2.2293,-2.2307,-2.2379,-2.2409,-2.246,-2.248,-2.2479,-2.2567,-2.2555,-2.2535,-2.2497,-2.2573,-2.2607,-2.262,-2.2445,-2.2444,-2.2443,-2.2443,0,0,-2.2108,-2.2166,-2.2182,-2.2208,-2.2254,-2.2295,-2.2354,-2.2405,-2.2435,-2.2472,-2.2523,-2.2592,-2.2575,-2.2603,-2.2605,-2.2645,-2.2725,-2.2621,-2.2622,-2.2641,-2.2826,-2.2842,-2.2858,-2.2718,-2.272,-2.2722,-2.2823,0,-2.2201,-2.2306,-2.2313,-2.2408,-2.2458,-2.2448,-2.2499,-2.2533,-2.2548,-2.2593,-2.2609,-2.2659,-2.2631,-2.2649,-2.2688,-2.2707,-2.2763,-2.27,-2.2765,-2.2767,-2.2758,-2.2875,-2.2892,-2.2986,-2.2836,-2.2839,-2.284,0,-2.2323,-2.2367,-2.2467,-2.2508,-2.2529,-2.2575,-2.2624,-2.2667,-2.2705,-2.2713,-2.2746,-2.2743,-2.2803,-2.2763,-2.2846,-2.2804,-2.283,-2.2844,-2.2848,-2.2855,-2.2809,-2.2888,-2.3016,-2.3031,-2.2861,-2.2859,-2.2858,0,-2.2395,-2.2478,-2.2549,-2.2571,-2.2619,-2.2653,-2.2674,-2.271,-2.2741,-2.2784,-2.2804,-2.2852,-2.2879,-2.2917,-2.2927,-2.2896,-2.3011,-2.2971,-2.3021,-2.3021,-2.3047,-2.3045,-2.3183,-2.3061,-2.3061,-2.306,-2.306,0,-2.2498,-2.2561,-2.2582,-2.2626,-2.2696,-2.2704,-2.2772,-2.2792,-2.2824,-2.2872,-2.2864,-2.2909,-2.2919,-2.2966,-2.2973,-2.3043,-2.3054,-2.3063,-2.3065,-2.3065,-2.3065,-2.3084,-2.3079,-2.3064,-2.3063,-2.3062,-2.3062,0,-2.259,-2.2607,-2.2685,-2.2725,-2.2737,-2.2787,-2.2821,-2.2863,-2.2878,-2.2939,-2.2953,-2.2976,-2.3031,-2.3045,-2.3109,-2.3114,-2.3197,-2.3191,-2.3185,-2.3185,-2.3236,-2.3232,-2.3392,-2.3415,-2.3276,-2.3277,-2.3278,0,-2.2657,-2.2705,-2.2751,-2.2783,-2.2807,-2.2858,-2.2891,-2.29,-2.2935,-2.2983,-2.302,-2.3074,-2.3118,-2.3206,-2.3228,-2.3278,-2.3275,-2.3328,-2.3282,-2.3282,-2.3278,-2.3276,-2.3282,-2.3337,-2.3338,-2.3339,-2.334,0,-2.2773,-2.278,-2.2827,-2.2879,-2.2919,-2.2959,-2.2998,-2.3024,-2.3039,-2.3078,-2.3135,-2.3169,-2.3237,-2.3291,-2.3342,-2.3363,-2.3355,-2.3354,-2.3369,-2.3371,-2.3366,-2.3372,-2.3211,-2.3351,-2.335,-2.3349,-2.3349,-2.3348,-2.2856,-2.2899,-2.2939,-2.2993,-2.3024,-2.306,-2.3103,-2.3124,-2.3172,-2.3229,-2.3231,-2.3293,-2.3331,-2.3399,-2.3423,-2.3472,-2.3456,-2.3477,-2.3482,-2.3488,-2.3494,-2.3357,-2.3481,-2.3481,-2.348,-2.348,-2.348,0,-2.2974,-2.2999,-2.3049,-2.3105,-2.3148,-2.3137,-2.3179,-2.3216,-2.3272,-2.3308,-2.3352,-2.3419,-2.3472,-2.3498,-2.3551,-2.3585,-2.3583,-2.3599,-2.3598,-2.3603,-2.3504,-2.3487,-2.36,-2.36,-2.36,-2.36,-2.36,-2.36,-2.304,-2.3114,-2.3125,-2.3214,-2.3238,-2.3301,-2.3327,-2.3361,-2.339,-2.3465,-2.351,-2.3528,-2.3561,-2.3616,-2.3665,-2.3671,-2.3692,-2.371,-2.3715,-2.3622,-2.361,-2.3598,-2.3583,-2.3714,-2.3714,-2.3811,-2.3812,-2.3812]}]]